Torna al catalogo

STARLINK-37974

AttivoComunicazioniSSO
NORAD 69699·PAYLOAD·🇺🇸 United States

Lanciato Jun 25, 2026 da Vandenberg Space Force Base

Loading…

Prossimi Passaggi (prossime 24 ore)

TLE

AggiornatoSource: CelesTrak SupGP

Epoca: Sep 14, 2026, 23:05 UTC

1 69699C 26145Y   26257.96229167  .00089345  00000+0  27739-2 0  2576
2 69699  97.2849 104.7816 0001692  91.8793 116.4619 15.33389021    16

Traccia STARLINK-37974 in tempo reale con AllMySat

Download on the App Store